Location: Fazenda Monte Alegre
(4.8500°S, 38.0333°W)
Time: 15:22:02
(UTC+00:00)

MOS 1 Rocket - Pass Details

Date: 24 September 2020
Orbit: 613 x 831 km, 97.4° (Epoch: 19 October)

Event Time Altitude Azimuth Distance (km) Brightness Sun altitude
Rises 20:50:32 0° 24° (NNE) 2,868 6.2 -6.6°
Reaches altitude 10° 20:52:45 10° 31° (NNE) 1,976 5.3 -7.1°
Maximum altitude 20:56:48 43° 102° (ESE) 895 3.5 -8.1°
Drops below altitude 10° 21:01:02 10° 173° (S) 2,060 5.7 -9.2°
Sets 21:03:23 0° 180° (S) 3,006 6.6 -9.8°
